[[{"header":{"parameterUnit":"m.s-1","parameterCategory":1,"la1":30.2991,"la2":30.254,"lo1":-89.0895,"lo2":-89.0444,"dy":0.0017,"dx":0.0017,"nx":28,"ny":28,"refTime":"2023-08-26T09:00:00:Z","depth":0,"parameterNumber":2,"parameterNumberName":"U-component_of_WINDS"},"data":[0,0,0,0,0,0,0,0,0,0,0,0,0,0,0,0,0,0,0,0,0,0,0,0,0,0,0,0,0,0,0,0,0,0,0,0,0,0,0,0,0,0,0,0,0,0,0,0,0,0,0,0,0,0,0,0,0,0,0.5033,0.5032,0,0.4921,0.492,0.4918,0.4826,0.4825,0.4824,0.4823,0.4709,0.4707,0.4705,0,0,0,0,0,0,0,0,0,0,0,0,0,0.5169,0.5167,0.5033,0.5031,0.503,0.4921,0.492,0.4918,0.4826,0.4825,0.4823,0.4822,0.471,0.4708,0.4705,0,0,0,0,0,0,0,0,0,0,0,0,0,0.5089,0.5166,0.5033,0.4971,0.4964,0.4921,0.492,0.4918,0.4826,0.4824,0.4823,0.4822,0.4711,0.4708,0.4705,0.4715,0,0,0.4695,0.4694,0,0,0,0,0,0,0,0,0.5093,0.5084,0.4981,0.4975,0.4967,0.4886,0.4926,0.485,0.4826,0.4879,0.4823,0.4821,0.4769,0.4761,0.4744,0.471,0.4705,0.4695,0.4693,0.4692,0.4691,0,0,0,0,0,0,0,0.5099,0.5088,0.4989,0.498,0.4972,0.4949,0.4936,0.4911,0.4834,0.4874,0.4867,0.4855,0.4765,0.4747,0.474,0.4703,0.4695,0.4692,0.469,0.4689,0.4675,0.4676,0,0,0,0,0,0,0.5114,0.5093,0.4992,0.4985,0.5028,0.4948,0.4933,0.4913,0.4834,0.482,0.4856,0.4851,0.4753,0.4744,0.4736,0.4745,0.4692,0.4689,0.4687,0.4673,0.4675,0.4677,0,0,0,0,0,0,0.5117,0.5106,0.4997,0.5037,0.5022,0.4947,0.4926,0.4912,0.4894,0.482,0.4806,0.4852,0.4751,0.474,0.4721,0.4739,0.4687,0.4685,0.4672,0.4674,0.4676,0.4762,0,0,0,0,0,0,0.5121,0.5107,0.511,0.5038,0.502,0.4984,0.4927,0.4911,0.4888,0.488,0.4812,0.48,0.4749,0.4727,0.4718,0.4734,0.4682,0.467,0.4673,0.4675,0.4757,0.4767,0.4775,0,0,0,0,0,0.5127,0.5139,0.5111,0.5099,0.5022,0.4985,0.4975,0.4916,0.489,0.4893,0.4846,0.4802,0.4739,0.4726,0.4715,0.4731,0.4668,0.4672,0.4675,0.4753,0.4765,0.4775,0,0,0,0,0,0,0.5215,0.5128,0.5096,0.5085,0.5043,0.4969,0.4971,0.493,0.4895,0.4889,0.4819,0.4804,0.4794,0.476,0.4747,0.4738,0.4698,0.4699,0.476,0.4771,0.478,0.4789,0.4679,0,0,0,0,0,0.5233,0.521,0.5135,0.5133,0.5113,0.5046,0.5028,0.4987,0.4941,0.4922,0.4874,0.4832,0.4802,0.4784,0.4753,0.4751,0.4736,0.4757,0.4766,0.4773,0.4776,0.4775,0.4783,0.4688,0.4688,0.4688,0,0,0.5271,0.522,0.521,0.5149,0.5112,0.5091,0.5032,0.5011,0.4995,0.4919,0.4899,0.4862,0.481,0.4801,0.4794,0.4772,0.4799,0.4778,0.4784,0.4783,0.4779,0.4788,0.4796,0.469,0.469,0.4689,0,0,0.5329,0.5287,0.5282,0.5246,0.519,0.5145,0.5144,0.5076,0.5049,0.5027,0.497,0.495,0.49,0.4866,0.4843,0.4889,0.4848,0.488,0.4928,0.4927,0.4935,0.4941,0.496,0.4967,0.4883,0.4883,0.4883,0,0.5383,0.5348,0.5284,0.5267,0.5243,0.5173,0.5168,0.5136,0.5073,0.5058,0.5034,0.4972,0.4932,0.4914,0.4926,0.4908,0.4905,0.4888,0.4939,0.4944,0.4949,0.4966,0.4973,0.4888,0.4887,0.4887,0.4886,0,0.5418,0.5395,0.5397,0.5338,0.5314,0.5303,0.5239,0.5222,0.5183,0.5141,0.5121,0.507,0.5028,0.5021,0.4982,0.4998,0.4987,0.4952,0.4911,0.4964,0.4979,0.4985,0.4894,0.4892,0.4891,0.489,0,0,0.553,0.5436,0.5438,0.5411,0.5344,0.5326,0.5312,0.5271,0.5259,0.5218,0.5206,0.5166,0.5134,0.5107,0.5064,0.5063,0.5106,0.5028,0.5026,0.5046,0.5123,0.5151,0.5159,0.5077,0.5078,0.5079,0.5128,0,0.5578,0.555,0.5492,0.5482,0.5461,0.5394,0.5383,0.5341,0.5302,0.5279,0.5235,0.5209,0.5167,0.5151,0.5147,0.5101,0.512,0.5097,0.5067,0.5067,0.5085,0.5167,0.5196,0.5245,0.5133,0.5134,0.5134,0,0.5632,0.5595,0.5583,0.5519,0.5508,0.5499,0.5457,0.5435,0.5387,0.5359,0.533,0.5282,0.5266,0.5227,0.5204,0.519,0.5174,0.515,0.515,0.5147,0.5106,0.5168,0.5259,0.5267,0.5142,0.5142,0.5141,0,0.5718,0.5665,0.5651,0.563,0.5554,0.555,0.5518,0.5468,0.5448,0.5412,0.5398,0.536,0.5341,0.5313,0.5258,0.5234,0.5242,0.5198,0.5219,0.5221,0.5226,0.5226,0.5318,0.5212,0.5212,0.5212,0.5212,0,0.5779,0.5775,0.5689,0.5681,0.5675,0.5609,0.5605,0.5567,0.5524,0.5508,0.5447,0.5434,0.5361,0.5339,0.5296,0.5285,0.5276,0.5253,0.5242,0.526,0.5263,0.525,0.5247,0.5214,0.5213,0.5213,0.5213,0,0.5875,0.5816,0.5798,0.5727,0.571,0.5709,0.5649,0.564,0.5596,0.5578,0.5569,0.5502,0.5474,0.5415,0.5371,0.5342,0.5342,0.5321,0.5359,0.5352,0.5378,0.5377,0.5466,0.5475,0.5362,0.5363,0.5364,0,0.592,0.5915,0.5844,0.5829,0.58,0.5776,0.5755,0.569,0.5671,0.5617,0.5614,0.5581,0.5551,0.551,0.5458,0.5424,0.5403,0.5436,0.5397,0.5416,0.5406,0.5408,0.5408,0.5445,0.5447,0.5448,0.5449,0,0.6006,0.5977,0.5948,0.591,0.5887,0.5853,0.5817,0.5808,0.5735,0.5717,0.5687,0.5664,0.5619,0.5588,0.5546,0.5515,0.5471,0.5462,0.5465,0.5485,0.5508,0.5498,0.5385,0.546,0.5459,0.5458,0.5458,0.5457,0.6078,0.6072,0.6022,0.5992,0.5958,0.5926,0.5914,0.5869,0.5843,0.5801,0.5764,0.5739,0.5692,0.5632,0.5603,0.5583,0.5561,0.5566,0.5567,0.557,0.5579,0.5509,0.5575,0.5574,0.5574,0.5573,0.5573,0,0.6164,0.6128,0.6101,0.6053,0.603,0.5989,0.5947,0.5931,0.5909,0.5869,0.5841,0.5808,0.5777,0.5723,0.5688,0.5683,0.5662,0.5676,0.5677,0.5671,0.5599,0.56,0.5694,0.5694,0.5694,0.5694,0.5694,0.5694,0.6206,0.6193,0.6159,0.6129,0.6093,0.6067,0.6047,0.6017,0.5985,0.5951,0.5925,0.5889,0.5844,0.5806,0.5777,0.5761,0.5753,0.5774,0.5753,0.5687,0.5676,0.5665,0.5666,0.5772,0.5772,0.5827,0.5827,0.5827]},{"header":{"parameterUnit":"m.s-1","parameterCategory":1,"la1":30.2991,"la2":30.254,"lo1":-89.0895,"lo2":-89.0444,"dy":0.0017,"dx":0.0017,"nx":28,"ny":28,"refTime":"2023-08-26T09:00:00:Z","depth":0,"parameterNumber":3,"parameterNumberName":"V-component_of_WINDS"},"data":[0,0,0,0,0,0,0,0,0,0,0,0,0,0,0,0,0,0,0,0,0,0,0,0,0,0,0,0,0,0,0,0,0,0,0,0,0,0,0,0,0,0,0,0,0,0,0,0,0,0,0,0,0,0,0,0,0,0,-1.1981,-1.1981,0,-1.2005,-1.2005,-1.2006,-1.2015,-1.2015,-1.2015,-1.2015,-1.2038,-1.2039,-1.204,0,0,0,0,0,0,0,0,0,0,0,0,0,-1.1942,-1.1942,-1.1981,-1.1981,-1.1982,-1.2005,-1.2005,-1.2006,-1.2015,-1.2015,-1.2015,-1.2015,-1.2038,-1.2039,-1.204,0,0,0,0,0,0,0,0,0,0,0,0,0,-1.1961,-1.1943,-1.1981,-1.1989,-1.199,-1.2005,-1.2005,-1.2006,-1.2015,-1.2015,-1.2015,-1.2015,-1.2038,-1.2039,-1.204,-1.2048,0,0,-1.2043,-1.2044,0,0,0,0,0,0,0,0,-1.196,-1.1963,-1.1988,-1.1989,-1.199,-1.2007,-1.2,-1.202,-1.2015,-1.2006,-1.2015,-1.2015,-1.2028,-1.203,-1.2035,-1.2049,-1.205,-1.2043,-1.2044,-1.2044,-1.2045,0,0,0,0,0,0,0,-1.1959,-1.1962,-1.1991,-1.1988,-1.1989,-1.1991,-1.1994,-1.2004,-1.2017,-1.2006,-1.2007,-1.201,-1.2029,-1.2034,-1.2035,-1.2051,-1.2043,-1.2044,-1.2045,-1.2045,-1.2073,-1.2073,0,0,0,0,0,0,-1.1956,-1.1961,-1.199,-1.1991,-1.1975,-1.1992,-1.1995,-1.2001,-1.2017,-1.2019,-1.201,-1.201,-1.2032,-1.2034,-1.2036,-1.2046,-1.2044,-1.2045,-1.2046,-1.2072,-1.2073,-1.2073,0,0,0,0,0,0,-1.1956,-1.1959,-1.1989,-1.1976,-1.198,-1.1993,-1.2,-1.2002,-1.2007,-1.202,-1.2022,-1.2013,-1.2032,-1.2035,-1.2045,-1.2047,-1.2046,-1.2047,-1.2072,-1.2073,-1.2073,-1.2067,0,0,0,0,0,0,-1.1954,-1.1959,-1.1962,-1.1976,-1.1981,-1.1998,-1.2,-1.2003,-1.2009,-1.201,-1.2023,-1.2025,-1.2032,-1.2043,-1.2046,-1.2049,-1.2048,-1.2072,-1.2072,-1.2073,-1.2067,-1.2067,-1.2067,0,0,0,0,0,-1.1953,-1.196,-1.1963,-1.1966,-1.1986,-1.1998,-1.2001,-1.2009,-1.2009,-1.2013,-1.202,-1.2025,-1.2046,-1.2044,-1.2047,-1.2051,-1.2072,-1.2072,-1.2073,-1.2068,-1.2067,-1.2067,0,0,0,0,0,0,-1.1946,-1.1962,-1.1965,-1.1977,-1.1986,-1.2,-1.2005,-1.2009,-1.2018,-1.2018,-1.2027,-1.203,-1.204,-1.2046,-1.2044,-1.2059,-1.206,-1.206,-1.2055,-1.2055,-1.2055,-1.2053,-1.2048,0,0,0,0,0,-1.1946,-1.1955,-1.1968,-1.1977,-1.1982,-1.1992,-1.1998,-1.2003,-1.2013,-1.2017,-1.2026,-1.2035,-1.2044,-1.2049,-1.2058,-1.2068,-1.2071,-1.2072,-1.2071,-1.2071,-1.2072,-1.2077,-1.2077,-1.2074,-1.2074,-1.2074,0,0,-1.1946,-1.1956,-1.1961,-1.1976,-1.1984,-1.1993,-1.1996,-1.2005,-1.2011,-1.2018,-1.2029,-1.2035,-1.2046,-1.2056,-1.2061,-1.2061,-1.2074,-1.2072,-1.2071,-1.2072,-1.2077,-1.2078,-1.2078,-1.2074,-1.2074,-1.2074,0,0,-1.1951,-1.1959,-1.1967,-1.1975,-1.1986,-1.1993,-1.1995,-1.2007,-1.2012,-1.2023,-1.2028,-1.2035,-1.205,-1.2058,-1.2063,-1.2069,-1.2072,-1.2071,-1.2071,-1.2076,-1.2076,-1.2076,-1.2078,-1.2079,-1.2072,-1.2072,-1.2072,0,-1.1949,-1.1963,-1.1971,-1.198,-1.1986,-1.1992,-1.2,-1.2007,-1.2021,-1.2025,-1.2025,-1.2044,-1.2051,-1.2063,-1.2064,-1.2068,-1.2071,-1.207,-1.2075,-1.2076,-1.2076,-1.2078,-1.2079,-1.2071,-1.2071,-1.2071,-1.2072,0,-1.196,-1.197,-1.1975,-1.1988,-1.1994,-1.2003,-1.2011,-1.2017,-1.2021,-1.2027,-1.2037,-1.2047,-1.2057,-1.206,-1.2064,-1.2072,-1.2072,-1.2074,-1.2075,-1.2076,-1.2078,-1.2079,-1.2071,-1.2071,-1.2071,-1.2071,0,0,-1.1963,-1.1979,-1.1981,-1.1987,-1.1999,-1.2006,-1.2014,-1.2024,-1.2029,-1.2037,-1.2044,-1.2056,-1.2057,-1.2064,-1.2069,-1.2073,-1.2076,-1.2074,-1.2074,-1.2074,-1.2084,-1.2083,-1.2084,-1.2078,-1.2078,-1.2078,-1.2083,0,-1.197,-1.1985,-1.1991,-1.2003,-1.2011,-1.2017,-1.2023,-1.2031,-1.2037,-1.2044,-1.205,-1.2059,-1.206,-1.2064,-1.2068,-1.2075,-1.2078,-1.2074,-1.2084,-1.2085,-1.2082,-1.2085,-1.2084,-1.2088,-1.2084,-1.2084,-1.2084,0,-1.198,-1.1988,-1.2001,-1.2011,-1.2015,-1.2021,-1.203,-1.2037,-1.2045,-1.2049,-1.2055,-1.206,-1.2068,-1.2067,-1.2078,-1.2075,-1.2079,-1.2083,-1.2083,-1.2085,-1.2085,-1.2087,-1.209,-1.209,-1.2085,-1.2085,-1.2085,0,-1.1981,-1.1995,-1.2004,-1.2009,-1.2021,-1.2025,-1.203,-1.2038,-1.2044,-1.2051,-1.2055,-1.2063,-1.2068,-1.2074,-1.2081,-1.208,-1.2091,-1.2091,-1.2094,-1.2094,-1.2097,-1.2096,-1.21,-1.2098,-1.2098,-1.2098,-1.2098,0,-1.1988,-1.1995,-1.2005,-1.201,-1.2018,-1.2025,-1.2033,-1.2038,-1.2045,-1.2052,-1.2057,-1.2062,-1.207,-1.2077,-1.2082,-1.2089,-1.2091,-1.2094,-1.2096,-1.2094,-1.2094,-1.2098,-1.2098,-1.2098,-1.2098,-1.2098,-1.2098,0,-1.1991,-1.1997,-1.2008,-1.2018,-1.202,-1.2026,-1.2034,-1.204,-1.2045,-1.2053,-1.2055,-1.2063,-1.2071,-1.2077,-1.2088,-1.2091,-1.2099,-1.2101,-1.2096,-1.2097,-1.21,-1.2099,-1.2107,-1.2108,-1.2105,-1.2105,-1.2105,0,-1.1995,-1.2001,-1.2011,-1.2016,-1.2021,-1.2028,-1.2033,-1.2039,-1.2044,-1.2054,-1.2058,-1.2066,-1.2073,-1.2085,-1.2092,-1.2099,-1.2101,-1.2103,-1.2102,-1.21,-1.2101,-1.2101,-1.2102,-1.2103,-1.2103,-1.2103,-1.2103,0,-1.2002,-1.2005,-1.2012,-1.202,-1.2026,-1.2033,-1.2039,-1.2043,-1.205,-1.2055,-1.2063,-1.2068,-1.2079,-1.2086,-1.2095,-1.2099,-1.2103,-1.2103,-1.2104,-1.2103,-1.2101,-1.2102,-1.2097,-1.2103,-1.2103,-1.2103,-1.2103,-1.2103,-1.2006,-1.2011,-1.2019,-1.2027,-1.2032,-1.2038,-1.2043,-1.2048,-1.2055,-1.2064,-1.2067,-1.2075,-1.2082,-1.2093,-1.2098,-1.2104,-1.2104,-1.2106,-1.2106,-1.2107,-1.2106,-1.2099,-1.2105,-1.2105,-1.2105,-1.2105,-1.2105,0,-1.2014,-1.2019,-1.2026,-1.2034,-1.204,-1.2042,-1.2049,-1.2053,-1.206,-1.2067,-1.2073,-1.2081,-1.2089,-1.2095,-1.2102,-1.2106,-1.2107,-1.2108,-1.2108,-1.2109,-1.2106,-1.2104,-1.2106,-1.2106,-1.2106,-1.2106,-1.2106,-1.2106,-1.2019,-1.2027,-1.203,-1.2041,-1.2045,-1.2053,-1.2057,-1.2062,-1.2067,-1.2076,-1.2082,-1.2086,-1.2092,-1.21,-1.2106,-1.2108,-1.211,-1.211,-1.2112,-1.2109,-1.2109,-1.2109,-1.2108,-1.2111,-1.2111,-1.2115,-1.2115,-1.2115]}]]